sat.trackr.live / text

‹ back to catalog

STARLINK-11229 [DTC]

NORAD 60908 · 2024-154F

PAYLOAD ACTIVE UNKNOWN

§ Identity

Operator
Country
US
Launch date
2024-08-31
Launch site
AFETR
Launch vehicle
Mass (kg)
RCS (m²)

Purposes: comms

External: N2YO · Heavens-Above · Gunter

§ Orbital elements

Epoch: 2026-05-25T02:24:16.999200Z

Period
91.74 min
Inclination
53.1571°
Eccentricity
0.0000737
Mean motion
15.69710149 rev/d
Perigee alt
359.2 km
Apogee alt
360.2 km
Semi-major
6,737.9 km
B*
2.2387e-5
RAAN
114.7247°
Arg perigee
82.6904°
Mean anomaly
277.4198°
Rev number
10,051

§ Raw data

STARLINK-11229 [DTC]1 60908U 24154F   26145.10019675  .00002125  00000+0  22387-4 0  99912 60908  53.1571 114.7247 0000737  82.6904 277.4198 15.69710149100517

JSON: /api/v1/satellites/60908 · /tle

For live sub-satellite position, see the globe view (requires WebGL).

§ Visibility from observer

Set your observer location to see the next 7 days of passes ≥ 10°. The values pass through the URL so the page stays shareable.

No JS? Fill the form by hand. The geolocation button needs JavaScript.